This demonstration page uses our WeatherBlox Daily Observations layout. Learn more.

Left ArrowRight Arrow

Hourly Observations for May 23, 2015

Temp ( °F °C ) Dew Point ( °F °C ) Humidity (%) Winds ( mph kmh ) Pressure ( in mb ) Visibility ( mi km ) Precip ( " mm )
12:53 am 00:53 Cloudy 67 19.4 55 12.8 66 66 W 6 9 29.96 1014 10 16 0.00 0.00
1:53 am 01:53 Mostly Cloudy 66 18.9 55 12.8 68 68 SW 6 9 29.96 1015 10 16 0.00 0.00
2:53 am 02:53 Cloudy 66 18.9 54 12.2 65 65 WSW 5 7 29.98 1015 10 16 0.00 0.00
3:53 am 03:53 Mostly Clear 64 17.8 53 11.7 68 68 WSW 7 11 29.99 1016 10 16 0.00 0.00
4:53 am 04:53 Cloudy 63 17.2 52 11.1 68 68 SSW 5 7 29.99 1016 10 16 0.00 0.00
5:53 am 05:53 Cloudy 61 16.1 51 10.6 70 70 S 8 13 30.00 1016 10 16 0.00 0.00
6:53 am 06:53 Mostly Sunny 61 16.1 51 10.6 70 70 S 9 15 30.02 1017 10 16 0.00 0.00
7:53 am 07:53 Mostly Sunny 64 17.8 52 11.1 65 65 S 8 13 30.04 1017 10 16 0.00 0.00
8:53 am 08:53 Mostly Sunny 66 18.9 51 10.6 59 59 SSW 8 13 30.04 1017 10 16 0.00 0.00
9:53 am 09:53 Sunny 68 20 50 10 53 53 ESE 5 7 30.03 1017 10 16 0.00 0.00
10:53 am 10:53 Partly Cloudy 71 21.7 51 10.6 49 49 S 5 7 30.02 1017 10 16 0.00 0.00
11:53 am 11:53 Sunny 74 23.3 50 10 43 43 VRB 3 6 30.01 1016 10 16 0.00 0.00
12:53 pm 12:53 Mostly Sunny 75 23.9 48 8.9 39 39 Calm 30.00 1016 10 16 0.00 0.00
1:53 pm 13:53 Sunny 76 24.4 46 7.8 35 35 Calm 29.98 1015 10 16 0.00 0.00
2:53 pm 14:53 Sunny 79 26.1 44 6.7 29 29 S 7 11 29.96 1014 10 16 0.00 0.00
3:53 pm 15:53 Sunny 81 27.2 43 6.1 26 26 SSW 8 13 29.93 1014 10 16 0.00 0.00
4:53 pm 16:53 Sunny 82 27.8 44 6.7 26 26 S 10 17 29.91 1013 10 16 0.00 0.00
5:53 pm 17:53 Mostly Sunny 82 27.8 42 5.6 24 24 SSW 6 9 29.91 1013 10 16 0.00 0.00
6:53 pm 18:53 Mostly Cloudy 81 27.2 41 5 24 24 S 7 11 29.89 1012 10 16 0.00 0.00
7:53 pm 19:53 Partly Cloudy 80 26.7 42 5.6 26 26 S 7 11 29.90 1012 10 16 0.00 0.00
8:53 pm 20:53 Clear 75 23.9 47 8.3 37 37 S 6 9 29.91 1013 10 16 0.00 0.00
9:53 pm 21:53 Clear 71 21.7 48 8.9 44 44 SSE 6 9 29.93 1014 10 16 0.00 0.00
10:53 pm 22:53 Clear 69 20.6 51 10.6 53 53 SE 5 7 29.95 1014 10 16 0.00 0.00
11:53 pm 23:53 Clear 68 20 51 10.6 55 55 Calm 29.96 1015 10 16 0.00 0.00

Powered by AerisWeather